QPF
0.01 0.02 0.03 0.04 0.04 0.04 0.04 0.03 0.03 0.02 0.03 0.03 0.02 0.03 0.04 0.03 0.03 0.04 0.05 0.04 0.05 0.05 0.06 0.05 0.03 0.02 0.01 0.02 0.03 0.02 0.02 0.01 0.01 0.01 0.01 0.01 0.01 0.01 0.00 0.00 0.00 0.00 0.00
0.02 0.02 0.03 0.03 0.03 0.04 0.03 0.03 0.03 0.03 0.03 0.03 0.04 0.04 0.05 0.05 0.04 0.03 0.04 0.05 0.04 0.04 0.05 0.06 0.05 0.04 0.02 0.02 0.02 0.03 0.03 0.02 0.01 0.01 0.01 0.01 0.01 0.00 0.00 0.00 0.00 0.00 0.00
0.02 0.03 0.03 0.03 0.04 0.04 0.05 0.05 0.05 0.03 0.03 0.04 0.07 0.06 0.07 0.05 0.04 0.03 0.04 0.04 0.05 0.05 0.04 0.05 0.06 0.07 0.05 0.03 0.02 0.02 0.03 0.03 0.01 0.01 0.01 0.01 0.00 0.00 0.00 0.01 0.00 0.00 0.00
0.04 0.04 0.04 0.04 0.04 0.04 0.05 0.07 0.06 0.06 0.06 0.06 0.08 0.08 0.08 0.06 0.04 0.03 0.03 0.03 0.04 0.05 0.05 0.04 0.04 0.04 0.05 0.05 0.05 0.03 0.02 0.02 0.01 0.01 0.01 0.01 0.01 0.01 0.01 0.01 0.01 0.01 0.00
0.06 0.06 0.06 0.05 0.05 0.06 0.06 0.05 0.04 0.05 0.07 0.08 0.06 0.08 0.07 0.05 0.05 0.03 0.02 0.01 0.02 0.04 0.04 0.03 0.03 0.03 0.03 0.04 0.05 0.04 0.03 0.02 0.02 0.02 0.01 0.01 0.01 0.01 0.01 0.01 0.01 0.01 0.01
0.05 0.07 0.06 0.05 0.04 0.07 0.07 0.06 0.07 0.07 0.07 0.09 0.05 0.05 0.05 0.04 0.03 0.04 0.03 0.01 0.02 0.02 0.03 0.03 0.05 0.03 0.02 0.03 0.03 0.03 0.03 0.03 0.03 0.02 0.02 0.01 0.01 0.02 0.02 0.01 0.01 0.01 0.01
0.05 0.07 0.07 0.07 0.06 0.07 0.08 0.06 0.06 0.06 0.05 0.07 0.08 0.07 0.06 0.03 0.02 0.03 0.03 0.02 0.02 0.02 0.02 0.04 0.05 0.05 0.02 0.02 0.02 0.02 0.03 0.04 0.05 0.04 0.03 0.03 0.02 0.02 0.01 0.01 0.01 0.01 0.01
0.08 0.08 0.09 0.08 0.08 0.09 0.10 0.10 0.08 0.06 0.05 0.05 0.06 0.07 0.07 0.06 0.03 0.02 0.03 0.02 0.01 0.01 0.01 0.01 0.02 0.04 0.03 0.03 0.02 0.01 0.03 0.04 0.05 0.05 0.05 0.04 0.03 0.02 0.02 0.01 0.01 0.01 0.01
0.08 0.08 0.06 0.07 0.08 0.08 0.09 0.10 0.10 0.09 0.08 0.05 0.04 0.05 0.05 0.05 0.04 0.02 0.02 0.01 0.01 0.01 0.01 0.01 0.01 0.01 0.02 0.02 0.02 0.01 0.02 0.02 0.03 0.05 0.06 0.04 0.03 0.02 0.01 0.02 0.02 0.02 0.01
0.07 0.06 0.06 0.07 0.07 0.06 0.08 0.07 0.07 0.09 0.09 0.07 0.06 0.05 0.03 0.03 0.04 0.03 0.02 0.01 0.01 0.01 0.02 0.01 0.00 0.01 0.01 0.01 0.01 0.01 0.01 0.01 0.01 0.03 0.04 0.03 0.02 0.01 0.01 0.01 0.01 0.02 0.01
0.10 0.07 0.07 0.06 0.06 0.06 0.07 0.07 0.08 0.07 0.07 0.07 0.07 0.06 0.04 0.03 0.02 0.03 0.03 0.02 0.02 0.01 0.01 0.00 0.00 0.00 0.00 0.01 0.02 0.01 0.01 0.01 0.01 0.01 0.01 0.02 0.02 0.02 0.01 0.01 0.01 0.01 0.02
0.12 0.09 0.07 0.08 0.06 0.06 0.07 0.08 0.08 0.07 0.08 0.09 0.08 0.07 0.05 0.04 0.03 0.03 0.03 0.03 0.02 0.01 0.01 0.00 0.00 0.00 0.01 0.01 0.01 0.00 0.00 0.01 0.01 0.01 0.01 0.01 0.01 0.01 0.01 0.02 0.02 0.02 0.02
0.10 0.09 0.07 0.07 0.07 0.07 0.06 0.08 0.09 0.07 0.07 0.08 0.08 0.07 0.06 0.04 0.02 0.03 0.04 0.03 0.02 0.01 0.01 0.00 0.00 0.00 0.00 0.00 0.01 0.00 0.00 0.01 0.01 0.01 0.01 0.00 0.00 0.00 0.01 0.01 0.02 0.02 0.02
0.07 0.08 0.07 0.07 0.06 0.06 0.05 0.07 0.07 0.07 0.08 0.08 0.06 0.07 0.06 0.03 0.02 0.02 0.03 0.04 0.03 0.03 0.02 0.01 0.00 0.00 0.01 0.01 0.01 0.01 0.00 0.00 0.00 0.00 0.00 0.00 0.00 0.00 0.00 0.00 0.01 0.01 0.01
0.07 0.07 0.07 0.07 0.06 0.06 0.07 0.06 0.07 0.07 0.07 0.07 0.06 0.07 0.07 0.05 0.04 0.03 0.02 0.03 0.04 0.04 0.03 0.03 0.02 0.01 0.01 0.01 0.01 0.01 0.01 0.01 0.00 0.01 0.00 0.00 0.00 0.00 0.00 0.00 0.01 0.01 0.01
0.08 0.08 0.08 0.09 0.08 0.06 0.07 0.07 0.06 0.07 0.08 0.09 0.07 0.07 0.07 0.04 0.05 0.04 0.03 0.03 0.04 0.05 0.04 0.03 0.03 0.01 0.02 0.02 0.01 0.01 0.01 0.02 0.02 0.01 0.01 0.00 0.00 0.00 0.00 0.00 0.00 0.00 0.01
0.11 0.12 0.12 0.11 0.09 0.07 0.06 0.06 0.05 0.05 0.08 0.08 0.07 0.07 0.07 0.06 0.06 0.05 0.06 0.07 0.07 0.07 0.06 0.04 0.03 0.03 0.03 0.04 0.03 0.03 0.02 0.02 0.02 0.02 0.01 0.00 0.00 0.00 0.00 0.00 0.00 0.01 0.01
0.12 0.13 0.14 0.13 0.12 0.08 0.07 0.06 0.06 0.06 0.07 0.07 0.07 0.07 0.07 0.06 0.05 0.05 0.06 0.06 0.05 0.05 0.05 0.05 0.05 0.04 0.04 0.04 0.04 0.03 0.02 0.01 0.01 0.02 0.01 0.01 0.01 0.00 0.00 0.00 0.00 0.00 0.00
0.12 0.15 0.16 0.14 0.12 0.11 0.08 0.07 0.07 0.08 0.08 0.08 0.09 0.08 0.07 0.08 0.08 0.07 0.07 0.06 0.05 0.04 0.05 0.05 0.05 0.05 0.04 0.04 0.03 0.03 0.03 0.03 0.02 0.02 0.01 0.01 0.01 0.01 0.01 0.00 0.00 0.00 0.00
0.12 0.13 0.13 0.15 0.16 0.13 0.09 0.08 0.08 0.09 0.10 0.10 0.11 0.10 0.08 0.08 0.08 0.08 0.07 0.06 0.06 0.07 0.08 0.08 0.08 0.08 0.08 0.07 0.05 0.04 0.04 0.05 0.04 0.02 0.02 0.01 0.01 0.01 0.01 0.01 0.00 0.00 0.00
0.12 0.14 0.16 0.15 0.16 0.19 0.16 0.14 0.12 0.12 0.15 0.15 0.14 0.11 0.09 0.08 0.08 0.07 0.06 0.06 0.06 0.06 0.06 0.07 0.07 0.07 0.06 0.05 0.04 0.04 0.04 0.05 0.04 0.03 0.04 0.02 0.02 0.01 0.01 0.01 0.01 0.01 0.01
0.12 0.14 0.17 0.16 0.13 0.12 0.16 0.17 0.17 0.19 0.20 0.20 0.20 0.16 0.13 0.10 0.09 0.08 0.08 0.07 0.07 0.06 0.07 0.07 0.07 0.07 0.07 0.06 0.06 0.05 0.05 0.05 0.05 0.04 0.05 0.04 0.03 0.03 0.03 0.03 0.02 0.02 0.01
0.08 0.10 0.13 0.12 0.11 0.11 0.13 0.14 0.14 0.15 0.16 0.15 0.17 0.18 0.15 0.13 0.11 0.09 0.10 0.10 0.09 0.10 0.10 0.10 0.10 0.09 0.09 0.09 0.08 0.08 0.08 0.09 0.09 0.07 0.07 0.06 0.04 0.04 0.04 0.03 0.03 0.03 0.02
0.07 0.09 0.10 0.11 0.12 0.12 0.14 0.14 0.14 0.14 0.15 0.17 0.17 0.16 0.15 0.14 0.14 0.13 0.12 0.10 0.09 0.09 0.09 0.08 0.08 0.09 0.10 0.10 0.10 0.09 0.08 0.08 0.07 0.06 0.06 0.06 0.06 0.07 0.07 0.06 0.05 0.03 0.02
0.07 0.07 0.08 0.11 0.11 0.12 0.14 0.15 0.16 0.15 0.18 0.22 0.23 0.21 0.18 0.17 0.18 0.17 0.15 0.15 0.16 0.15 0.14 0.13 0.13 0.12 0.11 0.10 0.09 0.07 0.07 0.07 0.06 0.05 0.05 0.05 0.05 0.05 0.04 0.03 0.02 0.01 0.01
0.09 0.08 0.07 0.07 0.08 0.08 0.10 0.12 0.15 0.17 0.20 0.21 0.20 0.18 0.16 0.14 0.12 0.10 0.09 0.11 0.12 0.13 0.14 0.13 0.12 0.10 0.09 0.08 0.07 0.05 0.05 0.06 0.05 0.05 0.04 0.04 0.04 0.04 0.03 0.02 0.02 0.01 0.01
MSLP
1016.74 1017.00 1017.20 1017.35 1017.46 1017.55 1017.64 1017.74 1017.83 1017.93 1018.01 1018.07 1018.13 1018.21 1018.32 1018.49 1018.74 1019.09 1019.51 1019.98 1020.46 1020.89 1021.24 1021.50 1021.66 1021.72 1021.72 1021.70 1021.69 1021.70 1021.75 1021.84 1021.94 1022.04 1022.14 1022.22 1022.28 1022.33 1022.38 1022.43 1022.48 1022.54 1022.61
1016.77 1017.03 1017.24 1017.39 1017.50 1017.59 1017.68 1017.77 1017.88 1017.99 1018.09 1018.19 1018.29 1018.40 1018.52 1018.69 1018.92 1019.22 1019.57 1019.96 1020.36 1020.74 1021.07 1021.32 1021.51 1021.62 1021.69 1021.73 1021.77 1021.82 1021.89 1021.97 1022.06 1022.15 1022.23 1022.30 1022.36 1022.42 1022.48 1022.55 1022.61 1022.69 1022.75
1016.78 1017.06 1017.29 1017.46 1017.60 1017.70 1017.81 1017.91 1018.03 1018.15 1018.29 1018.41 1018.53 1018.65 1018.78 1018.92 1019.09 1019.31 1019.57 1019.85 1020.16 1020.46 1020.74 1020.99 1021.19 1021.36 1021.50 1021.62 1021.72 1021.83 1021.93 1022.02 1022.11 1022.19 1022.26 1022.33 1022.39 1022.45 1022.52 1022.60 1022.69 1022.77 1022.84
1016.73 1017.03 1017.29 1017.51 1017.68 1017.82 1017.95 1018.08 1018.21 1018.36 1018.50 1018.65 1018.78 1018.90 1019.01 1019.11 1019.22 1019.35 1019.50 1019.68 1019.87 1020.08 1020.30 1020.53 1020.74 1020.95 1021.15 1021.34 1021.52 1021.68 1021.83 1021.95 1022.05 1022.13 1022.19 1022.25 1022.30 1022.37 1022.45 1022.54 1022.64 1022.73 1022.82
1016.57 1016.90 1017.20 1017.46 1017.68 1017.87 1018.04 1018.19 1018.35 1018.51 1018.66 1018.82 1018.95 1019.07 1019.16 1019.22 1019.28 1019.32 1019.37 1019.44 1019.53 1019.65 1019.80 1019.98 1020.20 1020.42 1020.67 1020.92 1021.15 1021.37 1021.56 1021.71 1021.83 1021.91 1021.98 1022.03 1022.08 1022.15 1022.23 1022.33 1022.43 1022.54 1022.64
1016.29 1016.64 1016.98 1017.29 1017.56 1017.80 1018.00 1018.19 1018.37 1018.54 1018.70 1018.86 1019.00 1019.11 1019.19 1019.23 1019.25 1019.23 1019.21 1019.19 1019.19 1019.22 1019.30 1019.43 1019.61 1019.84 1020.11 1020.38 1020.66 1020.92 1021.15 1021.33 1021.47 1021.57 1021.63 1021.69 1021.74 1021.80 1021.88 1021.98 1022.09 1022.20 1022.31
1015.92 1016.28 1016.65 1016.99 1017.31 1017.59 1017.83 1018.04 1018.24 1018.42 1018.59 1018.76 1018.90 1019.02 1019.11 1019.15 1019.14 1019.10 1019.03 1018.95 1018.88 1018.84 1018.85 1018.93 1019.07 1019.27 1019.52 1019.80 1020.10 1020.38 1020.64 1020.85 1021.01 1021.12 1021.20 1021.26 1021.32 1021.38 1021.46 1021.55 1021.66 1021.77 1021.88
1015.51 1015.86 1016.23 1016.60 1016.95 1017.26 1017.53 1017.77 1017.98 1018.18 1018.36 1018.54 1018.70 1018.83 1018.93 1018.98 1018.99 1018.94 1018.86 1018.75 1018.63 1018.54 1018.50 1018.51 1018.59 1018.75 1018.97 1019.23 1019.52 1019.81 1020.08 1020.31 1020.50 1020.64 1020.75 1020.83 1020.89 1020.96 1021.03 1021.12 1021.22 1021.32 1021.43
1015.09 1015.43 1015.80 1016.18 1016.54 1016.88 1017.17 1017.43 1017.66 1017.87 1018.06 1018.24 1018.42 1018.57 1018.69 1018.78 1018.81 1018.78 1018.70 1018.59 1018.46 1018.33 1018.23 1018.19 1018.21 1018.31 1018.47 1018.70 1018.96 1019.25 1019.52 1019.78 1020.00 1020.17 1020.31 1020.42 1020.51 1020.58 1020.66 1020.74 1020.82 1020.92 1021.01
1014.69 1015.01 1015.37 1015.75 1016.13 1016.48 1016.80 1017.08 1017.32 1017.54 1017.74 1017.94 1018.12 1018.29 1018.44 1018.55 1018.61 1018.61 1018.55 1018.45 1018.31 1018.16 1018.03 1017.94 1017.90 1017.93 1018.04 1018.21 1018.44 1018.71 1018.99 1019.26 1019.51 1019.73 1019.91 1020.06 1020.18 1020.28 1020.36 1020.44 1020.51 1020.59 1020.67
1014.28 1014.60 1014.96 1015.35 1015.74 1016.11 1016.45 1016.74 1017.00 1017.23 1017.44 1017.64 1017.83 1018.01 1018.17 1018.30 1018.39 1018.42 1018.39 1018.30 1018.17 1018.01 1017.85 1017.71 1017.62 1017.60 1017.64 1017.76 1017.95 1018.18 1018.45 1018.74 1019.02 1019.29 1019.52 1019.72 1019.88 1020.01 1020.10 1020.18 1020.25 1020.31 1020.37
1013.84 1014.16 1014.53 1014.93 1015.34 1015.73 1016.09 1016.41 1016.69 1016.93 1017.15 1017.35 1017.54 1017.73 1017.89 1018.03 1018.13 1018.18 1018.17 1018.10 1017.98 1017.82 1017.65 1017.48 1017.35 1017.27 1017.26 1017.32 1017.45 1017.65 1017.91 1018.19 1018.50 1018.79 1019.07 1019.32 1019.52 1019.69 1019.82 1019.91 1019.98 1020.03 1020.08
1013.30 1013.64 1014.03 1014.45 1014.88 1015.30 1015.69 1016.03 1016.33 1016.59 1016.82 1017.03 1017.22 1017.41 1017.57 1017.72 1017.82 1017.89 1017.89 1017.84 1017.74 1017.59 1017.42 1017.23 1017.07 1016.95 1016.88 1016.88 1016.96 1017.11 1017.33 1017.60 1017.90 1018.21 1018.51 1018.80 1019.04 1019.25 1019.41 1019.53 1019.61 1019.67 1019.72
1012.62 1012.99 1013.41 1013.86 1014.31 1014.76 1015.18 1015.55 1015.88 1016.17 1016.42 1016.64 1016.84 1017.02 1017.19 1017.34 1017.46 1017.54 1017.57 1017.54 1017.46 1017.34 1017.17 1016.99 1016.81 1016.65 1016.53 1016.48 1016.49 1016.57 1016.73 1016.95 1017.22 1017.51 1017.82 1018.12 1018.39 1018.63 1018.82 1018.97 1019.08 1019.16 1019.22
1011.81 1012.21 1012.65 1013.12 1013.60 1014.08 1014.52 1014.93 1015.29 1015.61 1015.89 1016.13 1016.36 1016.56 1016.75 1016.92 1017.06 1017.16 1017.22 1017.24 1017.20 1017.10 1016.97 1016.80 1016.61 1016.43 1016.27 1016.15 1016.09 1016.09 1016.16 1016.30 1016.50 1016.74 1017.02 1017.30 1017.58 1017.83 1018.05 1018.23 1018.38 1018.49 1018.57
1010.91 1011.32 1011.78 1012.27 1012.76 1013.26 1013.73 1014.16 1014.56 1014.92 1015.24 1015.53 1015.80 1016.04 1016.27 1016.47 1016.66 1016.81 1016.92 1016.99 1017.00 1016.96 1016.86 1016.72 1016.54 1016.35 1016.15 1015.97 1015.82 1015.72 1015.69 1015.72 1015.82 1015.98 1016.18 1016.41 1016.66 1016.91 1017.14 1017.35 1017.53 1017.67 1017.79
1010.00 1010.42 1010.87 1011.36 1011.86 1012.36 1012.85 1013.31 1013.75 1014.15 1014.53 1014.88 1015.20 1015.51 1015.80 1016.07 1016.32 1016.54 1016.72 1016.85 1016.93 1016.95 1016.91 1016.80 1016.65 1016.45 1016.22 1015.98 1015.76 1015.56 1015.40 1015.31 1015.28 1015.32 1015.43 1015.58 1015.77 1015.98 1016.20 1016.42 1016.62 1016.79 1016.94
1009.21 1009.60 1010.05 1010.52 1011.01 1011.51 1012.01 1012.49 1012.96 1013.41 1013.84 1014.26 1014.66 1015.05 1015.43 1015.78 1016.11 1016.40 1016.65 1016.86 1017.01 1017.09 1017.10 1017.04 1016.91 1016.72 1016.47 1016.20 1015.90 1015.61 1015.35 1015.13 1014.97 1014.88 1014.86 1014.91 1015.02 1015.17 1015.35 1015.55 1015.75 1015.94 1016.11
1008.62 1008.99 1009.41 1009.86 1010.34 1010.83 1011.32 1011.81 1012.31 1012.80 1013.30 1013.79 1014.27 1014.74 1015.20 1015.64 1016.04 1016.41 1016.74 1017.00 1017.21 1017.35 1017.41 1017.39 1017.29 1017.11 1016.86 1016.56 1016.22 1015.86 1015.51 1015.19 1014.91 1014.70 1014.55 1014.49 1014.49 1014.56 1014.68 1014.83 1015.01 1015.19 1015.36
1008.30 1008.65 1009.05 1009.48 1009.94 1010.41 1010.90 1011.40 1011.92 1012.45 1012.99 1013.54 1014.10 1014.64 1015.17 1015.68 1016.15 1016.57 1016.94 1017.25 1017.49 1017.66 1017.75 1017.76 1017.69 1017.53 1017.29 1016.99 1016.63 1016.24 1015.84 1015.44 1015.07 1014.75 1014.50 1014.32 1014.21 1014.18 1014.21 1014.30 1014.42 1014.56 1014.71
1008.29 1008.62 1009.00 1009.42 1009.86 1010.33 1010.81 1011.31 1011.84 1012.40 1012.98 1013.57 1014.18 1014.77 1015.35 1015.89 1016.39 1016.83 1017.21 1017.53 1017.77 1017.94 1018.03 1018.05 1017.99 1017.86 1017.64 1017.36 1017.02 1016.63 1016.21 1015.78 1015.36 1014.97 1014.63 1014.35 1014.14 1014.01 1013.94 1013.93 1013.98 1014.05 1014.15
1008.55 1008.88 1009.27 1009.68 1010.12 1010.58 1011.06 1011.56 1012.10 1012.67 1013.26 1013.88 1014.50 1015.11 1015.70 1016.25 1016.74 1017.16 1017.51 1017.78 1017.98 1018.12 1018.18 1018.19 1018.13 1018.00 1017.82 1017.57 1017.27 1016.92 1016.52 1016.10 1015.67 1015.25 1014.85 1014.49 1014.19 1013.96 1013.78 1013.67 1013.62 1013.61 1013.63
1009.04 1009.40 1009.79 1010.21 1010.65 1011.11 1011.59 1012.10 1012.63 1013.20 1013.79 1014.40 1015.02 1015.62 1016.18 1016.69 1017.13 1017.49 1017.77 1017.96 1018.09 1018.16 1018.17 1018.13 1018.05 1017.93 1017.77 1017.56 1017.31 1017.01 1016.66 1016.28 1015.87 1015.45 1015.03 1014.63 1014.26 1013.93 1013.66 1013.44 1013.28 1013.17 1013.10
1009.72 1010.09 1010.51 1010.94 1011.40 1011.86 1012.34 1012.84 1013.36 1013.91 1014.48 1015.07 1015.65 1016.20 1016.71 1017.15 1017.52 1017.79 1017.97 1018.07 1018.09 1018.06 1018.00 1017.90 1017.78 1017.65 1017.50 1017.32 1017.12 1016.88 1016.60 1016.27 1015.90 1015.51 1015.09 1014.66 1014.25 1013.85 1013.50 1013.19 1012.93 1012.72 1012.55
1010.52 1010.92 1011.35 1011.80 1012.25 1012.71 1013.18 1013.67 1014.17 1014.69 1015.23 1015.77 1016.30 1016.79 1017.23 1017.59 1017.86 1018.03 1018.11 1018.10 1018.03 1017.90 1017.75 1017.58 1017.41 1017.25 1017.09 1016.93 1016.77 1016.57 1016.34 1016.08 1015.76 1015.39 1014.99 1014.57 1014.13 1013.70 1013.28 1012.90 1012.56 1012.26 1012.01
1011.42 1011.83 1012.27 1012.71 1013.16 1013.60 1014.05 1014.51 1014.98 1015.46 1015.95 1016.43 1016.90 1017.32 1017.69 1017.97 1018.15 1018.24 1018.22 1018.12 1017.95 1017.74 1017.51 1017.28 1017.05 1016.85 1016.68 1016.52 1016.36 1016.19 1016.00 1015.77 1015.49 1015.16 1014.79 1014.38 1013.94 1013.49 1013.04 1012.61 1012.21 1011.85 1011.52
Thickness
5754 5752 5749 5748 5748 5747 5745 5744 5744 5742 5742 5740 5740 5739 5739 5738 5737 5735 5729 5724 5721 5720 5718 5717 5716 5715 5714 5713 5712 5711 5710 5709 5708 5707 5707 5706 5705 5704 5704 5703 5702 5701 5700
5753 5751 5748 5747 5748 5747 5747 5745 5744 5742 5742 5741 5740 5739 5738 5737 5735 5733 5732 5726 5722 5720 5719 5718 5716 5715 5714 5713 5712 5711 5710 5709 5708 5707 5706 5705 5705 5704 5703 5702 5701 5701 5700
5751 5750 5751 5748 5747 5746 5743 5743 5742 5743 5742 5741 5740 5739 5737 5736 5735 5733 5732 5730 5726 5722 5720 5718 5717 5716 5715 5714 5713 5712 5711 5710 5709 5708 5707 5706 5705 5704 5703 5702 5701 5700 5699
5749 5748 5750 5750 5746 5746 5745 5743 5744 5743 5742 5741 5740 5739 5738 5736 5735 5733 5733 5731 5729 5728 5723 5720 5718 5717 5716 5715 5714 5713 5712 5711 5709 5708 5707 5706 5705 5704 5704 5702 5701 5700 5699
5748 5747 5748 5748 5746 5745 5745 5745 5745 5744 5741 5740 5740 5738 5739 5738 5735 5735 5734 5733 5731 5729 5728 5723 5721 5719 5717 5716 5715 5714 5713 5712 5710 5710 5708 5707 5707 5706 5705 5703 5702 5701 5700
5747 5747 5747 5745 5746 5745 5743 5743 5742 5741 5741 5740 5742 5741 5739 5739 5738 5737 5735 5735 5733 5732 5731 5729 5725 5723 5720 5719 5717 5716 5715 5714 5712 5711 5710 5709 5708 5707 5706 5705 5703 5702 5701
5746 5745 5747 5745 5744 5744 5743 5743 5742 5740 5740 5740 5738 5737 5739 5741 5740 5739 5738 5738 5737 5735 5733 5731 5729 5728 5725 5722 5720 5718 5717 5716 5715 5714 5712 5711 5710 5709 5708 5706 5705 5704 5702
5745 5745 5744 5744 5744 5742 5741 5741 5740 5741 5741 5740 5737 5734 5732 5735 5738 5743 5741 5739 5739 5738 5736 5734 5731 5729 5729 5729 5726 5722 5720 5718 5717 5716 5715 5713 5712 5711 5709 5708 5707 5705 5704
5744 5744 5744 5744 5743 5743 5741 5739 5740 5737 5738 5740 5741 5737 5732 5730 5737 5742 5742 5742 5740 5739 5739 5738 5735 5733 5731 5730 5730 5726 5723 5721 5719 5718 5716 5715 5713 5712 5711 5710 5708 5707 5706
5744 5744 5743 5743 5743 5743 5741 5740 5741 5740 5737 5737 5739 5739 5741 5741 5735 5736 5741 5744 5742 5739 5740 5740 5739 5737 5734 5733 5731 5729 5726 5723 5721 5719 5718 5716 5715 5714 5712 5711 5709 5708 5707
5743 5744 5743 5743 5742 5743 5741 5740 5739 5739 5740 5739 5739 5739 5738 5738 5739 5735 5734 5739 5741 5743 5742 5740 5740 5740 5738 5735 5733 5732 5728 5725 5723 5721 5719 5717 5716 5715 5713 5712 5711 5709 5708
5743 5743 5743 5742 5742 5742 5741 5739 5739 5738 5739 5739 5739 5740 5738 5737 5738 5738 5736 5735 5737 5742 5743 5743 5742 5741 5739 5738 5736 5733 5729 5726 5724 5722 5720 5718 5717 5715 5714 5712 5711 5710 5709
5742 5742 5743 5742 5742 5741 5740 5740 5738 5739 5738 5737 5737 5739 5740 5741 5743 5741 5737 5736 5737 5741 5741 5742 5743 5742 5740 5739 5737 5733 5729 5727 5724 5722 5720 5718 5717 5715 5714 5712 5711 5709 5708
5743 5744 5742 5742 5741 5741 5740 5739 5739 5738 5738 5737 5738 5738 5738 5741 5742 5741 5738 5735 5731 5734 5737 5739 5743 5742 5740 5738 5736 5731 5730 5727 5724 5722 5720 5718 5716 5715 5713 5711 5710 5709 5707
5743 5743 5742 5741 5741 5740 5739 5737 5738 5737 5738 5737 5738 5737 5736 5740 5740 5740 5739 5736 5730 5726 5730 5735 5736 5740 5737 5735 5733 5730 5729 5726 5724 5721 5719 5717 5715 5713 5712 5710 5708 5707 5705
5742 5741 5742 5741 5739 5738 5737 5736 5737 5737 5736 5736 5736 5735 5735 5737 5737 5737 5736 5735 5733 5728 5726 5733 5734 5737 5733 5733 5730 5728 5726 5724 5722 5720 5717 5715 5712 5710 5708 5707 5705 5704 5702
5739 5739 5739 5739 5738 5737 5736 5735 5736 5736 5734 5734 5734 5734 5732 5733 5733 5733 5732 5731 5730 5728 5723 5728 5732 5732 5727 5725 5726 5724 5724 5722 5722 5718 5715 5712 5710 5707 5705 5703 5701 5700 5698
5738 5738 5737 5737 5736 5735 5734 5733 5733 5733 5732 5731 5731 5731 5729 5730 5728 5728 5727 5726 5726 5725 5722 5720 5723 5725 5722 5721 5720 5718 5720 5720 5719 5716 5712 5709 5706 5703 5701 5699 5697 5695 5693
5735 5734 5734 5733 5733 5733 5732 5731 5730 5730 5730 5729 5729 5727 5727 5725 5722 5722 5721 5721 5720 5721 5718 5716 5716 5718 5718 5717 5714 5713 5714 5712 5713 5712 5708 5704 5701 5698 5696 5694 5692 5690 5688
5732 5730 5729 5729 5729 5729 5729 5728 5727 5726 5726 5725 5725 5723 5722 5720 5718 5717 5715 5714 5713 5712 5711 5709 5710 5711 5710 5710 5707 5706 5706 5706 5705 5706 5703 5700 5696 5693 5691 5689 5686 5684 5681
5729 5727 5725 5725 5724 5723 5724 5724 5722 5722 5720 5719 5718 5717 5715 5713 5712 5710 5710 5708 5707 5705 5704 5703 5702 5702 5701 5699 5697 5698 5697 5697 5698 5697 5695 5693 5691 5689 5686 5682 5680 5677 5674
5724 5723 5721 5720 5719 5718 5717 5716 5716 5715 5714 5712 5711 5709 5708 5706 5704 5701 5700 5698 5696 5696 5695 5693 5693 5690 5689 5689 5688 5687 5685 5685 5684 5688 5684 5683 5683 5681 5679 5676 5674 5670 5665
5719 5718 5716 5715 5712 5710 5709 5708 5707 5707 5706 5704 5703 5701 5701 5700 5698 5696 5693 5689 5687 5684 5683 5683 5682 5680 5679 5679 5676 5676 5674 5672 5671 5674 5672 5671 5673 5671 5670 5668 5664 5660 5655
5713 5711 5709 5707 5704 5701 5700 5700 5699 5699 5698 5696 5695 5693 5691 5690 5689 5687 5686 5684 5681 5679 5676 5674 5673 5672 5671 5668 5667 5665 5663 5662 5662 5663 5661 5658 5660 5659 5660 5657 5653 5649 5645
5705 5703 5701 5698 5696 5693 5691 5691 5691 5692 5690 5687 5685 5683 5682 5681 5677 5676 5677 5675 5673 5670 5667 5664 5661 5659 5656 5655 5653 5654 5653 5651 5651 5652 5651 5646 5646 5646 5646 5645 5642 5637 5634
5697 5695 5691 5689 5687 5685 5682 5683 5684 5684 5680 5678 5675 5673 5669 5668 5667 5666 5667 5665 5662 5660 5659 5656 5652 5649 5648 5645 5642 5640 5640 5639 5638 5637 5637 5632 5631 5630 5630 5632 5629 5626 5622